STARLINK-5004 (53923 NORAD) Tracking and Keplerian Element Data

This shows tracking and keplerian element data for the satellite.

Feedback or suggestion? Click here.




ElementValue
Catalog53923
NameSTARLINK-5004
Epoch Orbit130
Epoch Day324.91667824
Epoch Year2022
RAAN331.1392
Inclination53.2142
Eccentricity0.0004009
Argument of Perigee2.9893
Mean Anonmoly15.9841
Mean Motion15.73182374
Decay Rate-6.654E-05
L11 53923U 22119AP 22324.91667824 -.00006654 00000+0 -43009-4 0 9995
L22 53923 53.2142 331.1392 0004009 2.9893 15.9841 15.73182374 1300



Live tracking and technical data element details for STARLINK-5004 (NORAD 53923). STARLINK-5004 can be tracked NOW for your location showing map with azimuth and elevation plus other details from your city location.







IsCatalogInMostPopularTable: catalog: 53923, numindb: 1
Update: records affected: 1



GetName: 53923 STARLINK-5004

Hit Count: updated at: Mon, 28 Nov 2022 21:04:07 GMT